Home > Time Zones > World Clock > Weather > Russia > Ufa > Past weeks

Flag for Russia Weather past 2 weeks in Ufa, Russia

Now
50 °F

Overcast.


Feels Like: 50 °F
Forecast: 38 / 60 °F
Wind: No wind

Location: Ufa

Current Time: Sep 3, 2015 at 10:44:13 PM

Latest Report: Sep 3, 2015 at 10:00 PM


Visibility: N/A

Pressure: 29.98 "Hg

Humidity: 100%

Dew point: 50 °F

Location of UfaLocation

Historic Weather in Ufa — Graph

°F

Ufa temperature yesterday

Maximum temperature yesterday: 59 °F (at 3:30 PM)
Minimum temperature yesterday: 39 °F (at 6:30 AM)
Average temperature yesterday: 51 °F

Past Weeks' High & Low Weather Summary

 TemperatureHumidityPressure
High75 °F (Aug 22, 4:00 PM)100% (Aug 25, 11:30 PM)30.09 "Hg (Aug 25, 11:30 PM)
Low39 °F (Sep 2, 6:30 AM)36% (Sep 2, 4:00 PM)29.36 "Hg (Aug 30, 1:00 PM)
Average54 °F77%29.88 "Hg
* Reported Aug 19 9:00 PM — Sep 3 9:30 PM, Ufa, Weather by CustomWeather, © 2015

Note: Actual official high and low records may vary slightly from our data, if they occured in-between our weather recording intervals... More about our weather records

Advertising

Ufa weather history for previous 24 hours

 ConditionsComfort  
Time TempWeatherWind HumidityBarometerVisibility
9:30 PM
Thu, Sep 3
50 °FOvercast.No wind100%29.95 "HgN/A
9:00 PM52 °FOvercast.No wind94%29.95 "HgN/A
8:30 PM52 °FSprinkles. Mostly cloudy.1 mph94%29.95 "HgN/A
8:00 PM52 °FSprinkles. Mostly cloudy.1 mph94%29.92 "HgN/A
7:30 PM52 °FSprinkles. More clouds than sun.3 mph94%29.92 "HgN/A
7:00 PM54 °FSprinkles. More clouds than sun.10 mph88%29.92 "HgN/A
6:30 PM57 °FMore clouds than sun.6 mph77%29.92 "HgN/A
6:00 PM57 °FMore clouds than sun.3 mph72%29.89 "HgN/A
5:30 PM57 °FMore clouds than sun.3 mph72%29.89 "HgN/A
5:00 PM57 °FMore clouds than sun.3 mph72%29.89 "HgN/A
4:30 PM57 °FMostly cloudy.1 mph77%29.86 "HgN/A
4:00 PM57 °FMostly cloudy.1 mph72%29.86 "HgN/A
3:30 PM55 °FMostly cloudy.3 mph82%29.86 "HgN/A
3:00 PM55 °FMostly cloudy.6 mph82%29.86 "HgN/A
2:30 PM55 °FMostly cloudy.No wind77%29.86 "HgN/A
2:00 PM55 °FMostly cloudy.1 mph77%29.86 "HgN/A
1:30 PM55 °FMostly cloudy.1 mph77%29.83 "HgN/A
1:00 PM55 °FSprinkles. Mostly cloudy.1 mph82%29.83 "HgN/A
12:30 PM57 °FMore clouds than sun.1 mph72%29.83 "HgN/A
12:00 PM55 °FPartly sunny.1 mph77%29.83 "HgN/A
11:30 AM54 °FPartly sunny.1 mph77%29.83 "HgN/A
11:00 AM52 °FPartly sunny.1 mph82%29.83 "HgN/A
10:30 AM52 °FPartly sunny.No wind82%29.83 "HgN/A
10:00 AM52 °FPartly sunny.1 mph82%29.80 "HgN/A
9:30 AM52 °FPartly sunny.No wind82%29.80 "HgN/A
9:00 AM52 °FPartly sunny.1 mph82%29.80 "HgN/A
8:30 AM48 °FScattered clouds.1 mph87%29.80 "HgN/A
8:00 AM48 °FPassing clouds.No wind82%29.80 "HgN/A
7:30 AM46 °FPassing clouds.No wind87%29.80 "HgN/A
7:00 AM46 °FPassing clouds.No wind87%29.80 "HgN/A
6:30 AM45 °FPassing clouds.No wind93%29.77 "HgN/A
6:00 AM46 °FPassing clouds.No wind87%29.80 "HgN/A
5:30 AM46 °FSprinkles. Overcast.No wind93%29.80 "HgN/A
5:00 AM46 °FSprinkles. Overcast.No wind93%29.80 "HgN/A
4:30 AM48 °FSprinkles. Overcast.1 mph82%29.77 "HgN/A
4:00 AM46 °FOvercast.No wind87%29.80 "HgN/A
3:30 AM48 °FSprinkles. Overcast.No wind82%29.80 "HgN/A
2:30 AM48 °FSprinkles. Overcast.No wind76%29.80 "Hg3 mi
2:00 AM48 °FOvercast.No wind76%29.77 "HgN/A
1:30 AM48 °FSprinkles. Overcast.No wind76%29.80 "HgN/A
1:00 AM50 °FOvercast.No wind67%29.80 "HgN/A
12:30 AM52 °FOvercast.No wind58%29.80 "HgN/A
12:00 AM50 °FOvercast.No wind62%29.80 "HgN/A
11:30 PM
Wed, Sep 2
50 °FOvercast.No wind62%29.77 "HgN/A
11:00 PM52 °FOvercast.1 mph58%29.77 "HgN/A
10:30 PM52 °FOvercast.No wind58%29.80 "HgN/A
10:00 PM52 °FOvercast.1 mph58%29.80 "HgN/A
Weather by CustomWeather, © 2015

See weather overviewHow to use our weather pages